Weather History for Guadalupe Pass, TX

Change the Weather History Date:

Wednesday, November 28, 2012

  Actual Average Record
Temperature  
Mean Temperature 54 °F -  
Max Temperature 66 °F 52 °F 73 °F (1998)
Min Temperature 43 °F 35 °F 17 °F (2001)
Degree Days  
Heating Degree Days 10    
Growing Degree Days 4 (Base 50)    
Moisture  
Dew Point 30 °F    
Average Humidity 40    
Maximum Humidity 54    
Minimum Humidity 28    
Precipitation  
Precipitation 0.00 in - - ()
Sea Level Pressure  
Sea Level Pressure 30.20 in    
Wind  
Wind Speed 11 mph (WSW)    
Max Wind Speed 18 mph    
Max Gust Speed 21 mph    
Visibility 10 miles    
Events      
Averages and records for this station are not official NWS values.
T = Trace of Precipitation, MM = Missing Value Source: NWS Daily Summary

Daily Weather History Graph

Daily Weather History Graph

Search for Another Location

Airport:

Trip Planner

Search our weather history database for the weather conditions in past years. The results will help you decide how hot, cold, wet, or windy it might be!

Date:

Astronomy

Nov. 28, 2012 Rise Set
Actual Time 6:39 AM MST 4:55 PM MST
Civil Twilight 6:12 AM MST 5:21 PM MST
Nautical Twilight 5:42 AM MST 5:51 PM MST
Astronomical Twilight 5:13 AM MST 6:21 PM MST
Moon 5:12 PM MST (11/28) 6:39 AM MST (11/28)
Length of Visible Light 11h 08m
Length of Day
10h 15m
Full, 100% of the Moon is Illuminated
Nov 28
Full
Dec 6
Last Quarter
Dec 13
New
Dec 19
First Quarter
Dec 28
Full

Hourly Weather History & Observations

Time (MST) Temp. Windchill Dew Point Humidity Pressure Visibility Wind Dir Wind Speed Gust Speed Precip Events Conditions
12:51 AM 45.0 °F 39.3 °F 26.1 °F 48% 30.25 in 10.0 mi WSW 11.5 mph - N/A   Clear
1:51 AM 45.0 °F 38.9 °F 26.1 °F 48% 30.24 in 10.0 mi WSW 12.7 mph - N/A   Clear
2:51 AM 46.0 °F 38.8 °F 27.0 °F 47% 30.24 in 10.0 mi WSW 18.4 mph - N/A   Clear
3:51 AM 43.0 °F 37.2 °F 26.1 °F 51% 30.25 in 10.0 mi SW 10.4 mph - N/A   Clear
4:51 AM 48.0 °F - 30.9 °F 52% 30.25 in 10.0 mi West 15.0 mph - N/A   Clear
5:51 AM 46.9 °F - 28.9 °F 50% 30.25 in 10.0 mi WSW 11.5 mph - N/A   Clear
6:51 AM 48.0 °F - 32.0 °F 54% 30.27 in 9.0 mi West 15.0 mph - N/A   Clear
7:51 AM 50.0 °F - 33.1 °F 52% 30.27 in 9.0 mi West 16.1 mph - N/A   Clear
8:51 AM 52.0 °F - 32.0 °F 47% 30.29 in 9.0 mi West 12.7 mph - N/A   Clear
9:51 AM 54.0 °F - 30.9 °F 41% 30.29 in 9.0 mi West 8.1 mph - N/A   Clear
10:51 AM 57.9 °F - 30.9 °F 36% 30.26 in 9.0 mi SW 6.9 mph - N/A   Clear
11:51 AM 62.1 °F - 32.0 °F 32% 30.23 in 9.0 mi WSW 9.2 mph - N/A   Clear
12:51 PM 64.0 °F - 32.0 °F 30% 30.19 in 9.0 mi WSW 13.8 mph - N/A   Clear
1:51 PM 66.0 °F - 33.1 °F 29% 30.15 in 9.0 mi WSW 13.8 mph 20.7 mph N/A   Clear
2:51 PM 66.0 °F - 32.0 °F 28% 30.13 in 9.0 mi SW 13.8 mph - N/A   Clear
3:51 PM 64.0 °F - 32.0 °F 30% 30.14 in 9.0 mi WSW 11.5 mph - N/A   Clear
4:51 PM 60.1 °F - 30.9 °F 33% 30.14 in 9.0 mi South 6.9 mph - N/A   Clear
5:51 PM 59.0 °F - 30.0 °F 33% 30.15 in 10.0 mi South 3.5 mph - N/A   Clear
6:51 PM 59.0 °F - 30.0 °F 33% 30.16 in 10.0 mi South 5.8 mph - N/A   Clear
7:51 PM 55.9 °F - 30.0 °F 37% 30.17 in 10.0 mi Variable 4.6 mph - N/A   Clear
8:51 PM 59.0 °F - 30.0 °F 33% 30.14 in 10.0 mi Calm Calm - N/A   Clear
9:51 PM 57.9 °F - 30.0 °F 35% 30.13 in 10.0 mi Calm Calm - N/A   Clear
10:51 PM 57.0 °F - 30.0 °F 36% 30.11 in 10.0 mi Calm Calm - N/A   Clear
11:51 PM 54.0 °F - 30.0 °F 40% 30.11 in 10.0 mi West 4.6 mph - N/A   Clear